Preview of NWS' New Version of Forecast
This preview is not operational and should not be used for support decisions.
Latest weather observations around

Alexander City, Thomas C Russell Field Airport (KALX)

Using International System of Units (Switch to English Units)
Date/ Time (CST) Wind (kph) Vis. (km) Weather Sky Cond. Temp (°C) Rel. Humidity Wind Chill (°C) Heat Index (°C) Pressure Precip. (cm)
Air Dwpt 6 hour Altimeter (hPa) Sea level (hPa) 1 hr 3 hr 6 hr
Max Min
Jan 24 02:35 WNW 17 11.27 Cloudy SCT011 BKN016 OVC030 7 5     91% 4   1009.8        
Jan 24 02:15 WNW 13 11.27 Cloudy BKN011 OVC028 7 6     93% 5   1009.5        
Jan 24 01:55 WNW 15 11.27 Cloudy BKN011 OVC019 8 7     91% 5   1009.5        
Jan 24 01:35 WNW 17 16.09 Cloudy BKN007 BKN011 OVC015 9 7     92% 6   1008.8        
Jan 24 01:15 WNW 9 11.27 Cloudy OVC007 10 9     94% 8   1009.2        
Jan 24 00:55 NW 21 8.05 Light Rain OVC007 11 10     94%     1009.2   0    
Jan 24 00:35 SW 9 16.09 Light Rain BKN005 OVC010 12 12     97%     1009.2        
Jan 24 00:15 SW 8 16.09 Cloudy OVC005 12 12     97%     1008.5        
Jan 23 23:55 SW 8 16.09 Light Rain OVC003 12 12     97%     1008.1       2
Jan 23 23:35 SW 9 16.09 Light Rain OVC005 12 12     97%     1008.5        
Jan 23 23:15 SW 9 16.09 Cloudy OVC005 12 12     97%     1008.5        
Jan 23 22:55 Calm 16.09 Cloudy OVC003 12 12     97%     1007.8   0    
Jan 23 22:35 SW 5 16.09 Cloudy BKN003 OVC070 12 12     97%     1007.1   0    
Jan 23 22:15 SE 9 16.09 Mostly Cloudy SCT001 SCT005 BKN075 12 12     97%     1006.8   0    
Jan 23 21:55 ESE 8 16.09 Light Rain SCT003 BKN007 OVC080 12 12     97%     1007.1   0    
Jan 23 21:35 Calm 11.27 Light Rain BKN010 OVC015 12 12     97%     1008.1   0    
Jan 23 21:15 Calm 8.05 Rain SCT010 BKN016 OVC038 12 12     97%     1008.8   0    
Jan 23 20:55 Calm 16.09 Light Rain OVC038 13 12     95%     1008.5   0 2  
Jan 23 20:35 Calm 16.09 Mostly Cloudy SCT042 BKN050 BKN085 13 12     95%     1008.1        
Jan 23 20:15 NNW 9 16.09 Light Rain SCT006 BKN012 OVC048 13 12     95%     1007.8        
Jan 23 19:55 N 11 11.27 Heavy Rain BKN012 OVC017 13 12     94%     1008.5   1    
Jan 23 19:35 NNW 11 8.05 Heavy Rain SCT007 OVC012 13 12     95%     1008.5   0    
Jan 23 19:15 WNW 9 8.05 Heavy Rain OVC012 13 12     94%     1009.5   0    
Jan 23 18:55 N 15 8.05 Heavy Rain SCT010 OVC015 13 12     94%     1008.5   1    
Jan 23 18:35 WNW 15 6.44 Heavy Rain SCT011 OVC016 14 13     94%     1009.8   1    
Jan 23 18:15 NW 17 8.05 Heavy Rain BKN008 OVC014 14 13     93%     1008.5   0    
Jan 23 17:55 NW 18 8.05 Cloudy BKN007 BKN011 OVC018 16 15     96%     1007.8   2   4
Jan 23 17:35 Calm 6.44 Rain SCT006 OVC011 16 15     97%     1007.8   2    
Jan 23 17:15 W 8 2.01 Heavy Rain OVC006 16 15     96%     1008.1   2    
Jan 23 16:55 W 13 4.83 Heavy Rain OVC012 17 16     94%     1008.1   1    
Jan 23 16:35 S 13 3.22 Heavy Rain SCT007 OVC013 17 16     93%     1007.1   1    
Jan 23 16:15 S 11 6.44 Heavy Rain SCT008 BKN019 OVC026 17 16     91%     1007.5   0    
Jan 23 15:55 SSW 15 4.83 Light Rain SCT007 BKN014 OVC033 17 15     93%     1007.1   0    
Jan 23 15:35 SSE 17 16.09 Light Rain SCT005 SCT010 OVC033 17 15     89%     1006.8   0    
Jan 23 15:15 SE 17 11.27 Light Rain SCT010 OVC033 17 15     90%     1006.8   0    
Jan 23 14:55 SSE 17 16.09 Thunderstorms and Rain SCT008 SCT012 OVC033 17 15     90%     1008.1   0 0  
Jan 23 14:35 SSE 18 6.44 Thunderstorms and Rain BKN008 BKN015 OVC021 17 15     87%     1008.5   0    
Jan 23 14:15 SE 17 11.27 Rain SCT009 SCT014 OVC036 18 14     77%     1008.8   0    
Jan 23 13:55 SE 5 16.09 Cloudy OVC036 16 14     85%     1009.8        
Jan 23 13:35 SE 8 16.09 Cloudy OVC036 16 14     87%     1010.5        
Jan 23 13:15 SE 9 16.09 Mostly Cloudy SCT032 BKN039 BKN060 16 14     90%     1011.2        
Jan 23 12:55 ESE 13 16.09 Cloudy OVC032 16 14     93%     1011.9   0    
Jan 23 12:35 SE 9 11.27 Light Rain SCT007 SCT012 OVC032 15 14     92%     1012.9   0    
Jan 23 12:15 SSE 11 8.05 Light Rain SCT007 BKN012 OVC022 16 14     89%     1013.6        
Jan 23 11:55 SSE 13 8.05 Drizzle OVC012 16 14     84%     1014.6        
Jan 23 11:35 S 11 11.27 Light Drizzle SCT002 BKN010 OVC029 17 13     79%     1015.2        
Jan 23 11:15 SSE 15 11.27 Light Drizzle SCT008 SCT011 OVC028 16 13     79%     1015.6        
Jan 23 10:55 SSE 17 16.09 Cloudy OVC028 17 12     72%     1015.9        
Jan 23 10:35 SSE 17 16.09 Cloudy OVC028 17 12     71%     1016.6        
Jan 23 10:15 SSE 22 16.09 Cloudy OVC026 17 12     71%     1016.6        
Jan 23 09:55 SE 13 16.09 Mostly Cloudy BKN026 BKN070 17 12     72%     1017.3        
Jan 23 09:35 SSE 24 16.09 Mostly Cloudy BKN024 BKN070 17 12     72%     1017.6        
Jan 23 09:15 SSE 15 16.09 Partly Cloudy SCT022 SCT034 SCT070 16 11     73%     1018        
Jan 23 08:55 SSE 18 16.09 Partly Cloudy SCT024 SCT034 SCT080 16 11     75%     1018        
Jan 23 08:35 SSE 17 16.09 Partly Cloudy SCT080 SCT090 15 11     77%     1018.3        
Jan 23 08:15 SE 11 16.09 Partly Cloudy SCT017 SCT050 SCT090 15 11     78%     1018.3        
Jan 23 07:55 SSE 22 16.09 Partly Cloudy SCT017 SCT050 14 11     80%     1019        
Jan 23 07:35 SE 18 16.09 Partly Cloudy SCT018 SCT060 SCT090 14 11     82%     1018.6        
Jan 23 07:15 SE 17 16.09 Mostly Cloudy SCT020 SCT060 BKN090 14 11     81%     1019        
Jan 23 06:55 SSE 17 16.09 Partly Cloudy SCT020 SCT060 SCT080 14 11     81%     1019.7        
Jan 23 06:35 SE 13 16.09 Partly Cloudy SCT018 SCT024 SCT060 14 11     82%     1019.7        
Jan 23 06:15 SE 13 16.09 Partly Cloudy SCT018 SCT024 SCT060 14 11     82%     1020        
Jan 23 05:55 SE 18 16.09 Mostly Cloudy SCT020 BKN110 13 10     83%     1019.7        
Jan 23 05:35 SE 17 16.09 Mostly Cloudy SCT020 SCT024 BKN100 13 10     83%     1019.3        
Jan 23 05:15 SE 9 16.09 Mostly Cloudy BKN016 BKN100 13 10     84%     1020.3        
Jan 23 04:55 SE 13 16.09 Cloudy BKN016 OVC022 13 10     83%     1020.3        
Jan 23 04:35 ESE 15 16.09 Cloudy OVC018 13 10     81%     1020.3        
Jan 23 04:15 SE 11 16.09 Cloudy OVC020 13 10     80%     1021        
Jan 23 03:55 ESE 15 16.09 Mostly Cloudy BKN020 BKN025 BKN060 13 10     80%     1021        
Jan 23 03:35 SE 15 16.09 Mostly Cloudy BKN022 BKN060 BKN095 13 10     80%     1021.3        
Jan 23 03:15 SE 11 16.09 Mostly Cloudy SCT022 BKN060 BKN095 13 9     80%     1021.7        
Jan 23 02:55 ESE 11 16.09 Mostly Cloudy SCT024 BKN060 BKN095 13 9     79%     1022        
Jan 23 02:35 ESE 17 16.09 Mostly Cloudy BKN060 13 9     79%     1022.4        
Jan 23 02:15 ESE 13 16.09 Cloudy SCT022 SCT028 OVC060 12 9     79%     1022.7        
Jan 23 01:55 ESE 13 16.09 Cloudy SCT024 BKN060 OVC090 12 8     79%     1023        
Jan 23 01:35 ESE 15 16.09 Mostly Cloudy SCT024 SCT028 BKN060 12 8     78%     1023.4        
Jan 23 01:15 ESE 13 16.09 Cloudy SCT024 OVC060 12 8     76%     1023.7        
Jan 23 00:55 E 13 16.09 Cloudy SCT024 OVC060 11 7     75%     1023.7        
Jan 23 00:35 ESE 13 16.09 Cloudy SCT024 BKN060 OVC085 11 7     74%     1023.7        
Jan 23 00:15 ESE 15 16.09 Mostly Cloudy SCT024 SCT050 BKN085 11 7     73%     1024.1        
Jan 22 23:55 E 17 16.09 Mostly Cloudy SCT026 BKN049 BKN085 11 7     73%     1024.1        
Jan 22 23:35 ESE 9 16.09 Cloudy BKN047 BKN060 OVC080 11 7     72%     1024.7        
Jan 22 23:15 ESE 18 16.09 Mostly Cloudy SCT047 SCT060 BKN080 12 6     71%     1024.7        
Jan 22 22:55 ESE 15 16.09 Cloudy OVC080 12 6     70%     1025.1        
Jan 22 22:35 ESE 17 16.09 Cloudy SCT070 OVC080 11 6     70%     1024.7        
Jan 22 22:15 ESE 17 16.09 Cloudy OVC070 11 6     69%     1024.7        
Jan 22 21:55 ESE 18 16.09 Cloudy OVC070 11 6     70%     1025.4        
Jan 22 21:35 ESE 15 16.09 Cloudy OVC070 11 5     69%     1025.7        
Jan 22 21:15 E 13 16.09 Cloudy OVC070 10 5     68%     1025.7        
Jan 22 20:55 E 15 16.09 Cloudy SCT037 SCT042 OVC070 10 4     67%     1026.1        
Jan 22 20:35 E 13 16.09 Cloudy SCT037 BKN055 OVC070 10 4     66%     1026.4        
Jan 22 20:15 E 8 16.09 Cloudy SCT037 OVC070 10 4     67% 9   1026.8        
Jan 22 19:55 E 9 16.09 Cloudy SCT035 OVC070 10 4     66% 8   1026.8        
Jan 22 19:35 E 11 16.09 Cloudy OVC070 10 4     66% 8   1027.1        
Jan 22 19:15 E 9 16.09 Cloudy OVC070 10 3     64% 9   1026.8        
Jan 22 18:55 E 11 16.09 Cloudy OVC070 10 4     65% 8   1026.8        
Jan 22 18:35 E 9 16.09 Cloudy OVC060 10 3     64% 8   1026.8        
Jan 22 18:15 E 11 16.09 Cloudy SCT045 OVC060 10 3     63% 8   1026.8        
Jan 22 17:55 E 9 16.09 Cloudy SCT045 OVC060 10 3     63% 9   1026.8        
Jan 22 17:35 E 8 16.09 Cloudy OVC060 10 3     62% 9   1026.8        
Jan 22 17:15 ESE 9 16.09 Cloudy OVC060 10 3     63% 9   1026.8        
Jan 22 16:55 ESE 15 16.09 Cloudy OVC060 10 3     62%     1026.4        
Jan 22 16:35 E 13 16.09 Cloudy OVC060 10 3     61%     1026.4        
Jan 22 16:15 E 13 16.09 Cloudy OVC060 10 3     60%     1026.4        
Jan 22 15:55 ESE 15 16.09 Cloudy SCT033 SCT038 OVC060 10 3     60%     1027.1        
Jan 22 15:35 E 13 16.09 Cloudy BKN031 OVC060 10 3     59%     1027.4        
Jan 22 15:15 E 17 16.09 Cloudy BKN031 OVC060 10 3     58%     1027.4        
Jan 22 14:55 E 17 16.09 Cloudy OVC031 10 3     58%     1027.4        
Jan 22 14:35 ESE 13 16.09 Cloudy OVC031 11 3     57%     1027.8        
Jan 22 14:15 ESE 17 16.09 Cloudy BKN031 BKN038 OVC060 10 2     56%     1027.8        
Jan 22 13:55 ESE 17 16.09 Mostly Cloudy SCT035 SCT041 BKN060 10 2     56%     1027.8        
Jan 22 13:35 E 21 16.09 Mostly Cloudy SCT032 SCT041 BKN050 10 2     57%     1027.8        
Jan 22 13:15 ESE 11 16.09 Mostly Cloudy SCT030 BKN050 10 2     58% 8   1028.1        
Jan 22 12:55 ESE 17 16.09 Cloudy BKN030 BKN040 OVC047 9 1     57% 7   1028.8        
Jan 22 12:35 SE 15 16.09 Cloudy BKN030 OVC044 9 1     57% 7   1029.1        
Jan 22 12:15 ESE 11 16.09 Cloudy BKN030 OVC045 9 1     55% 7   1029.8        
Jan 22 11:55 ESE 9 16.09 Mostly Cloudy SCT028 SCT033 BKN043 9 1     55% 8   1030.1        
Jan 22 11:35 ESE 13 16.09 Mostly Cloudy SCT028 SCT035 BKN042 10 0     52% 8   1030.1        
Jan 22 11:15 E 13 16.09 Mostly Cloudy SCT028 SCT033 BKN042 8 -1     55% 6   1030.5        
Jan 22 10:55 ESE 13 16.09 Mostly Cloudy SCT030 BKN042 7 -1     54% 5   1030.8        
Jan 22 10:35 E 18 16.09 Mostly Cloudy SCT028 BKN037 7 -2     54% 4   1031.2        
Jan 22 10:15 E 13 16.09 Cloudy SCT029 OVC035 7 -3     50% 4   1031.2        
Jan 22 09:55 E 15 16.09 Cloudy SCT025 OVC033 6 -4     51% 3   1031.8        
Jan 22 09:35 E 8 16.09 Cloudy SCT024 OVC030 4 -5     51% 3   1031.8        
Jan 22 09:15 E 11 16.09 Cloudy OVC025 4 -6     51% 1   1031.8        
Jan 22 08:55 E 13 16.09 Cloudy BKN023 OVC027 3 -6     52% -1   1031.8        
Jan 22 08:35 E 9 16.09 Mostly Cloudy BKN021 3 -6     53% 0   1031.8        
Jan 22 08:15 E 9 16.09 Partly Cloudy SCT021 2 -7     52% -1   1032.2        
Jan 22 07:55 E 8 16.09 Clear CLR 1 -7     54% -1   1032.2        
Jan 22 07:35 E 8 16.09 Clear CLR 1 -7     58% -2   1031.8        
Jan 22 07:15 E 5 16.09 Clear CLR 0 -7     61% -2   1031.8        
Jan 22 06:55 Calm 16.09 Clear CLR 0 -7     62%     1031.8        
Jan 22 06:35 E 8 16.09 Clear CLR 0 -6     64% -3   1031.2        
Jan 22 06:15 E 5 16.09 Clear CLR 0 -6     64% -2   1031.2        
Jan 22 05:55 E 5 16.09 Clear CLR 0 -6     65% -2   1030.8        
Jan 22 05:35 E 5 16.09 Clear CLR -1 -6     67% -2   1030.5        
Jan 22 05:15 E 8 16.09 Clear CLR 0 -6     67% -3   1030.1        
Jan 22 04:55 ENE 5 16.09 Clear CLR 0 -6     66% -2   1030.1        
Jan 22 04:35 ENE 5 16.09 Clear CLR 0 -6     66% -2   1030.1        
Jan 22 04:15 E 5 16.09 Clear CLR 0 -6     66% -2   1029.8        
Jan 22 03:55 E 8 16.09 Clear CLR 0 -6     66% -2   1029.8        
Jan 22 03:35 E 8 16.09 Clear CLR 0 -6     66% -2   1029.5        
Jan 22 03:15 E 8 16.09 Clear CLR 0 -6     66% -2   1029.5        
Jan 22 02:55 ENE 8 16.09 Clear CLR 0 -6     66% -2   1029.8        
Jan 22 02:35 E 5 16.09 Clear CLR 0 -6     66% -2   1029.8        
Jan 22 02:15 E 5 16.09 Clear CLR 0 -6     66% -2   1029.8        
Jan 22 01:55 Calm 16.09 Clear CLR 1 -6     63%     1029.8        
Jan 22 01:35 ENE 5 16.09 Clear CLR 1 -6     63% -1   1029.5        
Jan 22 01:15 E 5 16.09 Clear CLR 1 -6     62% -1   1029.5        
Jan 22 00:55 E 5 16.09 Clear CLR 1 -6     59% -1   1029.1        
Jan 22 00:35 E 5 16.09 Clear CLR 1 -6     60% 0   1029.1        
Jan 22 00:15 Calm 16.09 Clear CLR 2 -5     61%     1029.5        
Jan 21 23:55 E 5 16.09 Clear CLR 2 -6     55% 0   1029.1        
Jan 21 23:35 Calm 16.09 Clear CLR 2 -6     56%     1029.1        
Jan 21 23:15 ESE 5 16.09 Clear CLR 2 -6     56% 1   1029.1        
Jan 21 22:55 Calm 16.09 Clear CLR 2 -6     55%     1028.8        
Jan 21 22:35 Calm 16.09 Clear CLR 2 -7     53%     1028.8        
Jan 21 22:15 Calm 16.09 Clear CLR 2 -8     48%     1028.8        
Jan 21 21:55 E 5 16.09 Clear CLR 3 -9     44% 1   1028.8        
Jan 21 21:35 ENE 5 16.09 Clear CLR 3 -9     43% 1   1028.5        
Jan 21 21:15 E 8 16.09 Clear CLR 3 -9     41% 1   1028.5        
Jan 21 20:55 E 8 16.09 Clear CLR 3 -8     44% 1   1028.5        
Jan 21 20:35 ENE 5 16.09 Clear CLR 3 -8     46% 1   1028.5        
Jan 21 20:15 E 5 16.09 Clear CLR 2 -5     58% 1   1028.5        
Jan 21 19:55 Calm 16.09 Clear CLR 1 -4     69%     1028.5        
Jan 21 19:35 Calm 16.09 Clear CLR 2 -6     54%     1028.1        
Jan 21 19:15 Calm 16.09 Clear CLR 2 -5     61%     1028.5        
Jan 21 18:55 Calm 16.09 Clear CLR 2 -5     62%     1028.1        
Jan 21 18:35 Calm 16.09 Clear CLR 3 -5     53%     1028.1        
Jan 21 18:15 Calm 16.09 Clear CLR 3 -6     54%     1028.1        
Jan 21 17:55 Calm 16.09 Clear CLR 4 -5     53%     1028.5        
Jan 21 17:35 Calm 16.09 Clear CLR 5 -7     43%     1028.5        
Jan 21 17:15 Calm 16.09 Clear CLR 6 -9     33%     1028.5        
Jan 21 16:55 Calm 16.09 Clear CLR 7 -12     24%     1028.5        
Jan 21 16:35 ENE 5 16.09 Clear CLR 8 -13     22% 7   1028.5        
Jan 21 16:15 E 5 16.09 Clear CLR 8 -12     23% 7   1028.5        
Jan 21 15:55 ESE 5 16.09 Clear CLR 8 -13     22% 7   1028.5        
Jan 21 15:35 Calm 16.09 Clear CLR 8 -12     22%     1028.5        
Jan 21 15:15 ESE 8 16.09 Clear CLR 8 -12     22% 7   1028.5        
Jan 21 14:55 E 5 16.09 Clear CLR 8 -12     23% 7   1028.1        
Jan 21 14:35 Calm 16.09 Clear CLR 8 -13     22%     1028.5        
Jan 21 14:15 NNW 5 16.09 Clear CLR 7 -14     22% 6   1028.1        
Jan 21 13:55 NNE 8 16.09 Clear CLR 7 -13     23% 5   1028.5        
Jan 21 13:35 NNE 5 16.09 Clear CLR 7 -13     23% 6   1028.5        
Jan 21 13:15 N 9 16.09 Clear CLR 6 -13     24% 4   1028.8        
Jan 21 12:55 NNE 8 16.09 Clear CLR 6 -12     28% 4   1029.1        
Jan 21 12:35 N 9 16.09 Clear CLR 6 -11     29% 3   1029.5        
Jan 21 12:15 NNE 9 16.09 Clear CLR 5 -11     30% 3   1029.5        
Jan 21 11:55 NNE 13 16.09 Clear CLR 5 -11     32% 1   1029.8        
Jan 21 11:35 N 13 16.09 Clear CLR 4 -10     35% 1   1030.1        
Jan 21 11:15 NNW 15 16.09 Clear CLR 3 -10     37% 0   1030.5        
Jan 21 10:55 NNE 15 16.09 Clear CLR 3 -11     37% -1   1030.5        
Jan 21 10:35 NNE 5 16.09 Clear CLR 2 -11     38% 1   1030.5        
Jan 21 10:15 NNE 9 16.09 Clear CLR 1 -11     42% -2   1030.5        
Jan 21 09:55 NNE 13 16.09 Clear CLR 1 -10     44% -3   1030.8        
Jan 21 09:35 NNE 11 16.09 Clear CLR 0 -10     47% -4   1030.5        
Jan 21 09:15 NNE 11 16.09 Clear CLR -1 -10     49% -4   1030.5        
Jan 21 08:55 NNE 21 16.09 Clear CLR -1 -10     53% -7   1030.5        
Jan 21 08:35 N 13 16.09 Clear CLR -2 -8     60% -6   1030.1        
Jan 21 08:15 N 15 16.09 Clear CLR -2 -8     63% -7   1029.8        
Jan 21 07:55 NNE 9 16.09 Clear CLR -2 -7     69% -6   1029.5        
Jan 21 07:35 N 5 16.09 Clear CLR -3 -7     71% -5   1029.5        
Jan 21 07:15 N 8 16.09 Clear CLR -3 -7     73% -6   1029.1        
Jan 21 06:55 Calm 16.09 Clear CLR -3 -8     72%     1028.1        
Jan 21 06:35 N 5 16.09 Clear CLR -3 -8     72% -5   1027.8        
Jan 21 06:15 N 8 16.09 Clear CLR -3 -7     72% -6   1027.4        
Jan 21 05:55 N 8 16.09 Clear CLR -3 -7     72% -6   1027.1        
Jan 21 05:35 N 9 16.09 Clear CLR -3 -8     71% -7   1027.1        
Jan 21 05:15 N 8 16.09 Clear CLR -3 -7     72% -6   1026.4        
Jan 21 04:55 N 11 16.09 Clear CLR -3 -8     70% -7   1026.1        
Jan 21 04:35 N 9 16.09 Clear CLR -3 -7     69% -6   1025.7        
Jan 21 04:15 N 9 16.09 Clear CLR -3 -8     68% -6   1025.7        
Jan 21 03:55 N 13 16.09 Clear CLR -3 -8     69% -7   1025.7        
Jan 21 03:35 N 11 16.09 Clear CLR -2 -8     66% -6   1025.7        
Jan 21 03:15 N 9 16.09 Clear CLR -2 -8     66% -6   1025.7        
Jan 21 02:55 N 9 16.09 Clear CLR -2 -7     68% -6   1025.4        
May 15 05:15 Calm 16.09 Clear CLR 20 20     100%     1015.6        
May 15 01:15 Calm 16.09 Clear CLR 21 21     100%     1014.9        
May 14 23:35 Calm 16.09 Clear CLR 21 21     100%     1015.2        
May 14 18:15 Calm 16.09 Clear CLR 29 23     70%   33 1014.6        
May 14 15:15 ENE 9 16.09 Clear CLR 32 20     50%   34 1015.2        
May 14 11:15 NE 8 16.09 Clear CLR 30 21     58%   32 1017.6        
May 14 07:35 NNE 5 16.09 Clear CLR 20 18     89%     1017.6        
May 13 14:55 NW 13 16.09 Clear CLR 32 17     42%   32 1018.3        
May 13 07:55 Calm 16.09 Clear CLR 22 18     78%   22 1021        
May 12 21:15 Calm 16.09 Clear CLR 20 19     91%     1019.7        
May 12 20:55 Calm 16.09 Clear CLR 21 19     89%     1019.7        
May 12 19:35 Calm 16.09 Clear CLR 25        %     1019        
May 12 17:55 WSW 9 16.09 Clear CLR 30 17     46%   31 1018.6        
May 12 17:15 W 11 16.09 Clear CLR 31 17     44%   31 1019        
May 12 15:55 SSW 5 16.09 Clear   31 17     44%   32 1019.7        
May 12 15:35 WSW 13 16.09 Clear CLR 32 18     44%   32 1019.7        
May 12 02:55 Calm 16.09 Clear CLR 16 16     100%     1019.7        
May 11 21:15 Calm 16.09 Clear CLR 21 19     88%     1019.7        
May 11 17:15 SW 8 16.09 Clear CLR 30 17     47%   31 1018.6        
May 11 13:35 W 5 16.09 Clear CLR 29 18     51%   30 1020.3        
May 11 10:55 WSW 5 16.09 Clear CLR 27 19     62%   29 1021.3        
Jun 12 07:15 Calm 16.09 Mostly Cloudy BKN004 23 22     94%   24 1022        
Jun 12 05:35 Calm 16.09 Mostly Cloudy BKN011 21 20     96%     1021.3        
Jun 12 01:15 Calm 16.09 Partly Cloudy SCT033 22 22     96%   23 1021        
Jun 11 17:55 ESE 5 16.09 Clear CLR 29 21     60%   31 1019        
Jun 11 16:55 SE 9 16.09 Clear   30 20     54%   33 1019.7        
Jun 11 16:15 SE 8 16.09 Clear CLR 30 20     54%   33 1020.3        
Jun 11 14:55 SE 9 16.09 Clear   30 20     54%   32 1020.7        
Notice The following observation data may not be complete
Jun 11 05:15   16.09 Clear CLR          %              
Jun 10 10:15 SE 5 16.09 Clear CLR 27 17     53%   28 1019.7        
Notice The following observation data may not be complete
Jun 09 16:15   16.09 Partly Cloudy SCT055 SCT065          %              
Jun 08 17:35 NNW 5 16.09 Clear CLR 26 14     46%   26 1011.2        
Notice The following observation data may not be complete
Jun 08 12:15   16.09 Clear CLR          %              
Notice The following observation data may not be complete
Jun 08 11:15   16.09 Partly Cloudy SCT035          %              
Jun 08 09:15 SE 5 16.09 Partly Cloudy SCT041 21 15     71%     1013.6        
Notice The following observation data may not be complete
Jun 08 07:55   16.09 Partly Cloudy SCT040 SCT090          %              
Jun 08 07:35 Calm 16.09 Clear CLR 18 15     83%     1013.2        
Jun 07 20:55 N 8 16.09 Clear CLR 22 15     63%   22 1010.8        
Jun 07 15:15 E 11 16.09 Partly Cloudy SCT032 SCT060 26 19     68%   26 1008.8        
Jun 07 10:55 E 9 16.09 Mostly Cloudy BKN024 BKN031 24 19     73%   25 1009.5        
Jun 06 03:35 Calm 8.05 Fog/Mist OVC004 22 21     99%   23 1008.8        
Jun 06 00:55 Calm 11.27 Cloudy OVC002 22 22     98%   23 1010.2       0
Notice The following observation data may not be complete
Jun 05 18:35   16.09 Partly Cloudy SCT012          %              
Jun 05 16:35 WSW 8 16.09 Partly Cloudy SCT018 25 21     82%   25 1010.2        
Jun 05 15:15 S 15 16.09 Partly Cloudy SCT040 26 21     75%   26 1009.5